Flag for Germany Weather past 2 weeks in Görlitz, Saxony, Germany

Now
40 °F

Overcast.


Feels Like: 34 °F
Forecast: 35 / 44 °F
Wind: 8 mph from Southwest

Location: Goerlitz

Current Time: Mar 1, 2015 at 9:05:16 PM

Latest Report: Mar 1, 2015 at 8:00 PM


Visibility: 8 mi

Pressure: 29.70 "Hg

Humidity: 88%

Dew point: 36 °F

Location of GörlitzLocation

Historic Weather in Görlitz — Graph

°F

Görlitz temperature yesterday

Maximum temperature yesterday: 40 °F (at 1:00 PM)
Minimum temperature yesterday: 30 °F (at 9:00 PM)
Average temperature yesterday: 36 °F

Past Weeks' High & Low Weather Summary

 TemperatureHumidityPressure
High47 °F (Feb 15, 3:00 PM)100% (Feb 18, 6:00 AM)30.76 "Hg (Feb 18, 6:00 AM)
Low23 °F (Feb 17, 6:00 AM)51% (Feb 24, 2:00 PM)29.47 "Hg (Feb 21, 4:00 PM)
Average36 °F82%30.06 "Hg
* Reported Feb 14 8:00 PM — Mar 1 8:00 PM, Görlitz, Weather by CustomWeather, © 2015

Note: Actual official high and low records may vary slightly from our data, if they occured in-between our weather recording intervals... More about our weather records

Advertising

Görlitz weather history for previous 24 hours

 ConditionsComfort  
Time TempWeatherWind HumidityBarometerVisibility
8:00 PM
Sun, Mar 1
40 °FOvercast.8 mph88%29.70 "Hg8 mi
7:00 PM39 °FOvercast.8 mph89%29.71 "Hg8 mi
6:00 PM38 °FOvercast.9 mph90%29.70 "Hg11 mi
5:00 PM38 °FOvercast.10 mph89%29.70 "Hg14 mi
4:00 PM38 °FLow clouds.13 mph89%29.70 "Hg17 mi
3:00 PM37 °FLow clouds.10 mph92%29.72 "Hg9 mi
2:00 PM38 °FLight rain. Overcast.10 mph88%29.72 "Hg10 mi
1:00 PM39 °FOvercast.12 mph73%29.74 "Hg16 mi
12:00 PM40 °FOvercast.10 mph70%29.76 "Hg11 mi
11:00 AM39 °FOvercast.10 mph70%29.77 "Hg9 mi
10:00 AM38 °FOvercast.8 mph78%29.81 "Hg5 mi
9:00 AM36 °FOvercast.7 mph86%29.84 "Hg5 mi
8:00 AM35 °FFog.6 mph88%29.87 "Hg4 mi
7:00 AM34 °FScattered clouds.5 mph89%29.88 "Hg4 mi
6:00 AM33 °FFog.6 mph90%29.90 "Hg4 mi
5:00 AM34 °FPassing clouds.6 mph89%29.94 "Hg4 mi
4:00 AM33 °FPassing clouds.6 mph89%29.95 "Hg5 mi
3:00 AM34 °FClear.6 mph87%29.98 "Hg6 mi
2:00 AM35 °FClear.7 mph84%30.00 "Hg6 mi
1:00 AM30 °FClear.2 mph95%30.03 "Hg6 mi
12:00 AM32 °FClear.2 mph90%30.06 "Hg9 mi
11:00 PM
Sat, Feb 28
32 °FClear.2 mph90%30.07 "Hg9 mi
10:00 PM32 °FClear.2 mph91%30.09 "Hg9 mi
9:00 PM30 °FClear.3 mph94%30.12 "Hg11 mi
Weather by CustomWeather, © 2015

See weather overviewHow to use our weather pages